Location: Northcutt
(34.7304°N, 84.4305°W)
Time: 03:02:11
(UTC+00:00)

Vanguard 2 - Pass Details

Date: 08 October 2022
Orbit: 553 x 2933 km, 32.9° (Epoch: 05 December)

Event Time Altitude Azimuth Distance (km) Brightness Sun altitude
Rises 00:24:49 0° 280° (W) 6,308 14.0 -15.5°
Reaches altitude 10° 00:29:38 10° 271° (W) 5,519 13.2 -16.5°
Maximum altitude 00:42:54 28° 220° (SW) 4,395 11.7 -19.2°
Drops below altitude 10° 00:56:04 10° 169° (S) 5,423 11.6 -21.9°
Sets 01:00:52 0° 159° (SSE) 6,178 11.9 -22.9°
